Regional Weather Roundup
Issued by NWS Jackson, KY

Home | Current Version | Previous Version | Graphics & Text | Print | Product List | Glossary On
Versions: 1 2 3 4 5 6 7 8 9 10 11 12 13 14 15 16 17 18 19 20 21 22 23 24 25 26 27
000
ASUS43 KJKL 300810
RWRJKL

EAST KENTUCKY HOURLY WEATHER ROUNDUP
NATIONAL WEATHER SERVICE JACKSON KY
400 AM EDT MON MAY 30 2016

NOTE: "FAIR" INDICATES FEW OR NO CLOUDS BELOW 12,000 FEET WITH
NO SIGNIFICANT WEATHER AND/OR OBSTRUCTIONS TO VISIBILITY.

* THESE REPORTS ARE NOT UNDER NWS QUALITY CONTROL AND MAY NOT
  REPORT WEATHER SUCH AS PRECIPITATION AND FOG.

KYZ079-080-083-085-087-088-110-112-115-119-120-300900
...EASTERN KENTUCKY...

CITY           SKY/WX    TMP DP  RH WIND       PRES   REMARKS
JACKSON        PTCLDY    65  62  90 CALM      30.06S
LONDON         CLOUDY    65  62  90 CALM      30.05S
SOMERSET*      RAIN      64  64 100 CALM      30.07R
MONTICELLO*    LGT RAIN  69  66  90 N14       30.07R
WILLIAMSBURG*  CLOUDY    61  61 100 CALM      30.06S
MIDDLESBORO*   FOG       60  60 100 CALM      30.08S VSB 1/4
HARLAN APT*    CLOUDY   N/A N/A N/A CALM      30.08S
HAZARD APT*    PTSUNNY   64  64 100 CALM      30.07R
BLACK MTN*       N/A    N/A N/A N/A E2          N/A
PIKE CO APT*   CLOUDY    64  64 100 N5        30.07R FOG
MOREHEAD APT*  LGT RAIN  64  63  94 S8        30.06S
ASHLAND*       CLOUDY    64  63  94 CALM      30.01F
$$

KYZ035-036-041-042-044-050-067-078-099-300900
...CENTRAL KENTUCKY...

CITY           SKY/WX    TMP DP  RH WIND       PRES   REMARKS
MT STERLING*   PTCLDY    66  66 100 CALM      30.06S
FLEMING/MASON* CLOUDY    64  63  97 W6        30.04S
DANVILLE*      PTCLDY    70  61  73 NW5       30.06S
RICHMOND*      MOCLDY    66  64  94 W5        30.04S
LEXINGTON      PTCLDY    66  63  90 CALM      30.04S
FRANKFORT      MOCLDY    67  62  84 CALM      30.03R
LOUISVILLE     CLOUDY    71  60  68 CALM      30.03S
LEBANON*         N/A     66  59  77 CALM      30.05F
GLASGOW*       PTCLDY    65  65 100 CALM      30.04F
BOWLING GREEN  PTCLDY    68  62  81 CALM      30.04F
$$

KYZ091>093-OHZ055-061-077-WVZ005-015-034-035-042-300900
...SOUTHERN OHIO/WEST VIRGINIA...

CITY           SKY/WX    TMP DP  RH WIND       PRES   REMARKS
COVINGTON      CLOUDY    67  64  90 S6        30.04R
COLUMBUS       CLOUDY    63  63 100 CALM      30.01R
DAYTON         CLOUDY    65  62  90 NW3       30.04R
WILMINGTON     PTCLDY    64  63  96 SW7       30.03S
HUNTINGTON       N/A     65  60  84 SW5       30.03F
CHARLESTON     FOG       64  63  96 SW3       30.03S VSB<1/4
PINEVILLE*     MOCLDY    58  55  90 MISG      30.12F FOG
BECKLEY          N/A     60  56  86 SE5       30.09F
BLUEFIELD      CLOUDY    57  55  93 SE3       30.11F FOG
LOGAN CO APT*  FOG       63  61  94 NW6       30.05S VSB 1/2
$$

VAZ002-007-008-TNZ017-027-036-066-071-300900
...SOUTHWEST VIRGINIA/EAST TENNESSEE...

CITY           SKY/WX    TMP DP  RH WIND       PRES   REMARKS
WISE*          FOG       61  61 100 CALM      30.11F VSB 1/4
JONESVILLE*    FOG       64  64 100 CALM      30.09S VSB<1/4
ABINGDON*        N/A     63  59  88 CALM      30.09S
BRISTOL        PTCLDY    58  56  93 N3        30.07F
SEVIERVILLE*   SUNNY     61  61 100 CALM      30.05R
KNOXVILLE      FOG       66  65  96 E5        30.04R VSB 1/16
OAK RIDGE      CLEAR     66  63  90 CALM      30.06R
CROSSVILLE     CLEAR     64  59  83 CALM      30.09S
NASHVILLE      CLOUDY    73  66  78 CALM      30.04S
$$

...KEY TO REMARKS...
VSB - VISIBILITY IN MILES
WCI - WIND CHILL INDEX
HX  - HEAT INDEX

$$




USA.gov is the U.S. government's official web portal to all federal, state and local government web resources and services.